DMSP 5D-2 F13 DEB, 40609

Orbit data source: Space-Track

DMSP 5D-2 F13 DEB, 40609 is space debris in SSO originally from a launch on Fri, 24 Mar 1995 UTC launched from the Air Force Western Test Range (AFWTR). Debris objects in space refer to the collection of defunct objects orbiting the Earth. Examples of debris include non-operational satellites, rocket bodies, and fragments generated from explosions, collisions, or faulty payload assembly.

Loading next visibility...
Identifier
40609, 1995-015FG
Orbit
SSO
Country
Flag of USUS
Related business
Manufacturer
Unknown
Mission
Spacecraft
Bus & Motor
Unknown
Mass
Unknown
Launch date (UTC)
1995-03-24 (31 years ago)
Launch vehicle
Unknown
Launch site
Air Force Western Test Range (AFWTR)
Object type
Payload
Rocket body
Debris
Shape & HBR
Unknown shape, 0.1 m
Radar Cross Section
Small (<0.1 m²)

Expand to show TLE details & history
Last TLE update: 5 days ago

TLE from 5 days ago
0 DMSP 5D-2 F13 DEB
1 40609U 95015FG  25308.85362961  .00005997  00000-0  18718-2 0  9994
2 40609  98.6891 343.6128 0001463 315.2062  44.9007 14.41173398547496
Epoch: 2025-11-04T20:29Z
TLE epoch observation values (Epoch: 2025-11-04T20:29:13.598Z)
Latitude
-0.00011°
Longitude
-8.02853°
Altitude
756.829 km
Speed
7.476 km/s
True Right ascension
22h 54m 27s
True Declination
0° 00' 00"
Sunlit
Object was in full shadow at epoch
Visualization orbit readout
Latitude
Unknown
Longitude
Unknown
Altitude
Unknown
Speed
Unknown
Apparent Right ascension
Unknown
Apparent Declination
Unknown
Sunlit
N/A
Visualization observer readout
Local Sidereal Time
19:08:42
Azimuth
Unknown
Elevation
Unknown
Doppler factor
Unknown
Orbital elements
Apogee altitude
752.797 km
Perigee altitude
750.71 km
Semi-major axis
7,129.891 km
Eccentricity
0.00015
Inclination
98.6891°
RAAN
343.6128°
Arg. of periapsis
315.2062°
True anomaly
44.91254°
Mean anomaly
44.9007°
Eccentric anomaly
44.90662°
Mean motion
3.60511 °/min
Orbital period
99.86 mins
BSTAR
0.0018718

Documentation

Showing up to 5 results
|